Location: Unspecified
(54.1780°N, 0.0000°E)
Time: 17:41:09
(UTC+00:00)

Explorer 7 - Pass Details

Date: 20 June 2019
Orbit: 485 x 680 km, 50.3° (Epoch: 25 August)

Event Time Altitude Azimuth Distance (km) Brightness Sun altitude
Rises 11:49:49 0° 254° (WSW) 2,872 10.6 59.2°
Reaches altitude 10° 11:52:06 10° 250° (WSW) 1,999 9.9 59.2°
Maximum altitude 11:56:35 53° 174° (S) 801 10.5 59.2°
Drops below altitude 10° 12:01:18 10° 98° (E) 2,093 10.0 59.3°
Sets 12:03:44 0° 94° (E) 3,022 10.6 59.3°
